This is the latest recevied weather packets stored in our database for station/object W5CRT. If no packets are shown the sender has not sent any weather packets the latest 10 day(s).
| Time | Temp. | Humidity | Pressure | Rain* | Wind** | Luminosity | Snow |
|---|---|---|---|---|---|---|---|
| 1778020753 | 30.56° C | 61% | 1002.5 hPa | 0 mm | - | 224 W/m² | - |
| 1778020450 | 31.67° C | 60% | 1002.2 hPa | 0 mm | - | 189 W/m² | - |
| 1778020146 | 31.67° C | 58% | 1002.1 hPa | 0 mm | - | 199 W/m² | - |
| 1778019842 | 31.67° C | 57% | 1002.2 hPa | 0 mm | - | 587 W/m² | - |
| 1778019539 | 31.67° C | 58% | 1002.3 hPa | 0 mm | - | 308 W/m² | - |
| 1778019236 | 31.67° C | 57% | 1002.3 hPa | 0 mm | - | 482 W/m² | - |
| 1778018933 | 32.22° C | 57% | 1002.5 hPa | 0 mm | - | 624 W/m² | - |
| 1778018630 | 31.67° C | 57% | 1002.5 hPa | 0 mm | - | 619 W/m² | - |
| 1778018327 | 31.67° C | 58% | 1002.4 hPa | 0 mm | - | 538 W/m² | - |
| 1778018025 | 31.67° C | 57% | 1002.5 hPa | 0 mm | - | 586 W/m² | - |
| 1778017723 | 31.67° C | 57% | 1002.7 hPa | 0 mm | - | 707 W/m² | - |
| 1778017420 | 32.22° C | 57% | 1002.6 hPa | 0 mm | - | 729 W/m² | - |
| 1778017117 | 31.11° C | 58% | 1002.4 hPa | 0 mm | - | 737 W/m² | - |
| 1778016815 | 31.67° C | 57% | 1002.6 hPa | 0 mm | - | 255 W/m² | - |
| 1778016511 | 31.67° C | 57% | 1002.5 hPa | 0 mm | - | 702 W/m² | - |
| 1778016208 | 31.67° C | 56% | 1002.8 hPa | 0 mm | - | 820 W/m² | - |
| 1778015904 | 31.67° C | 57% | 1002.8 hPa | 0 mm | - | 800 W/m² | - |
| 1778015602 | 31.11° C | 59% | 1002.8 hPa | 0 mm | - | 820 W/m² | - |
| 1778015298 | 31.11° C | 60% | 1002.8 hPa | 0 mm | - | 846 W/m² | - |
| 1778014995 | 31.11° C | 59% | 1002.7 hPa | 0 mm | - | 802 W/m² | - |
| 1778014692 | 31.11° C | 59% | 1002.8 hPa | 0 mm | - | 913 W/m² | - |
| 1778014391 | 31.11° C | 60% | 1002.7 hPa | 0 mm | - | 888 W/m² | - |
| 1778014087 | 31.11° C | 60% | 1003.1 hPa | 0 mm | - | 948 W/m² | - |
| 1778013785 | 31.11° C | 59% | 1003.2 hPa | 0 mm | - | 948 W/m² | - |
| 1778013482 | 31.11° C | 59% | 1003.3 hPa | 0 mm | - | 849 W/m² | - |
* Rain latest hour (hover to see other rain measurements)
** Current wind speed in m/s (hover to see current wind gust speed)